MEASAT-3A

Last updated on Sun Apr 12 2026 00:02:51 GMT+0000 (Coordinated Universal Time)

1 35362U 09032A 26101.51572448 -.00000109 00000+0 00000+0 0 9998 2 35362 0.0355 22.7209 0003331 3.5904 159.0900 1.00271966 7369
UTC large
Height (km)
Speed (km/s)
/
Latitude / Longitude
Inclination (degrees)
Orbital Period (minutes)
Azimuth
Elevation
Range (km)
Doppler Factor

Next 0 passes for location: London (51.5072 / 0.1276)

Sorry there are no passes over London.
MEASAT-3A